Regional Weather Roundup
Issued by NWS

Home | Current Version | Previous Version | Text Only | Print | Product List | Glossary Off
Versions: 1 2 3 4 5 6 7 8 9 10 11 12 13 14 15 16 17 18 19 20 21 22 23 24 25 26 27 28 29 30 31 32 33 34 35 36 37 38 39 40 41 42 43 44 45 46 47 48 49 50

000
ASUS43 KIND 301809
RWRIN

WEATHER ROUNDUP FOR INDIANA
NATIONAL WEATHER SERVICE INDIANAPOLIS IN
200 PM EDT SUN APR 30 2017

NOTE: "FAIR" INDICATES FEW OR NO CLOUDS BELOW 12,000 FEET WITH NO
SIGNIFICANT WEATHER AND/OR OBSTRUCTIONS TO VISIBILITY.

* - STATION DOES NOT REPORT WEATHER SUCH AS PRECIPITATION OR FOG.

+ - STATION NOT QUALITY CONTROLLED BY THE NATIONAL WEATHER SERVICE.
    USE DATA WITH CAUTION...ESPECIALLY DEWPOINT AND RELATIVE
    HUMIDITY OBSERVATIONS.

INZ001>003-010>013-019-020-301900-
NORTHWEST INDIANA

CITY           SKY/WX    TMP DP  RH WIND       PRES   REMARKS
GARY /AIRPORT/ CLOUDY    48  46  93 NW10      29.81R FOG
KNOX *+        CLOUDY    68  45  42 SW14G20   29.78R
LA PORTE +     CLOUDY    56  55  95 SW5       29.78S FOG
6HR MIN TEMP:  45; 6HR MAX TEMP:  56; 6HR PCP:  0.43;

MICHIGAN CITY+ CLOUDY    54  54 100 W5        29.79S
MONTICELLO +   RAIN      65  62  91 SW6       29.80R
6HR MIN TEMP:  48; 6HR MAX TEMP:  67; 6HR PCP:  0.31;

RENSSELAER +   CLOUDY    68  61  77 SW16G22   29.78R
VALPARAISO     CLOUDY    56  54  93 W5        29.79R FOG
6HR MIN TEMP:  48; 6HR MAX TEMP:  56; 6HR PCP:  0.36;


$$

LMZ046-743>745-301900-
SOUTHERN LAKE MICHIGAN

STATION/POSITION TIME  TEMP    WIND        PRES    WAVE
                       AIR SEA DIR/SP/G            HT
                 (UTC) (F)     (DEG/KT/KT) (MB)    (FT)
BURNS HARBOR     1740   46     340/  9/ 12 1009.5F
MICHIGAN CITY    1740   50     280/ 10/ 11   N/A
5NW MICH CITY    1800   45 49                N/A     3

$$

INZ004-005-014>016-021>024-301900-
NORTH CENTRAL INDIANA

CITY           SKY/WX    TMP DP  RH WIND       PRES   REMARKS
ELKHART        CLOUDY    66  61  82 SE7       29.78
GOSHEN         LGT RAIN  66  60  81 S10       29.79S
6HR MIN TEMP:  46; 6HR MAX TEMP:  66; 6HR PCP:  0.37;

LOGANSPORT +   HVY RAIN  64  61  88 SW15G21   29.83R
PERU/GRISSOM   LGT RAIN  66  66 100 S17G28    29.81R
6HR MIN TEMP:  48; 6HR MAX TEMP:  70; 6HR PCP:  0.05;

ROCHESTER +    RAIN      66  63  88 S5        29.82R
SOUTH BEND     CLOUDY    65  61  87 SW13      29.78F
6HR MIN TEMP:  44; 6HR MAX TEMP:  66; 6HR PCP:  0.34;

WARSAW +       LGT RAIN  64  61  88 S5        29.81R

$$

INZ006>009-017-018-025>027-301900-
NORTHEAST INDIANA

CITY           SKY/WX    TMP DP  RH WIND       PRES   REMARKS
ANGOLA *+      CLOUDY    57  55  94 SE9       29.83F
AUBURN +       PTSUNNY   61  57  88 SE7       29.83F FOG
FORT WAYNE     CLOUDY    71  62  73 S18G26    29.82F
6HR MIN TEMP:  47; 6HR MAX TEMP:  71; 6HR PCP:  0.01;

HUNTINGTON +   LGT RAIN N/A N/A N/A S12G20    29.81R
                                      6HR PCP:  0.02;

KENDALLVILLE + CLOUDY    61  60  96 SE8       29.83S FOG

$$

INZ028-029-035-036-043>045-051>053-301900-
WEST CENTRAL INDIANA

CITY           SKY/WX    TMP DP  RH WIND       PRES   REMARKS
CRAWFORDSVL +  DRIZZLE   63  63 100 S16G25    29.83S
6HR MIN TEMP:  56; 6HR MAX TEMP:  64; 6HR PCP:  0.11;

GREENCASTLE +  LGT RAIN  64  64 100 S10G20    29.84F
LAFAYETTE      LGT RAIN  65  63  93 SW14G23   29.80R
6HR MIN TEMP:  51; 6HR MAX TEMP:  67; 6HR PCP:  0.21;

TERRE HAUTE    RAIN      65  63  93 S10       29.83F
6HR MIN TEMP:  64; 6HR MAX TEMP:  68; 6HR PCP:  0.45;


$$

INZ030>032-037>040-046>048-054>057-064-065-301900-
CENTRAL INDIANA

CITY           SKY/WX    TMP DP  RH WIND       PRES   REMARKS
CP ATTERBURY + CLOUDY    72  63  73 S13G18    29.84F
COLUMBUS       CLOUDY    72  63  73 S14       29.84F
FISHERS *+     CLOUDY    66  64  94 SW9       29.88R
FRANKFORT +    LGT RAIN  68  65  90 SW17G24   29.83R
6HR MIN TEMP:  54; 6HR MAX TEMP:  71; 6HR PCP:  0.06;

GREENWOOD *+   CLOUDY    70  62  78 W6        29.87R
6HR MIN TEMP:  61; 6HR MAX TEMP:  71;

INDIANAPOLIS   LGT RAIN  66  64  93 SW13      29.85R
6HR MIN TEMP:  58; 6HR MAX TEMP:  70; 6HR PCP:  0.05;

-EAGLE CREEK   HVY RAIN  67  63  87 S7        29.85R FOG
6HR MIN TEMP:  58; 6HR MAX TEMP:  71; 6HR PCP:  0.06;

KOKOMO +       LGT RAIN  69  62  78 SW21G26   29.84R
6HR MIN TEMP:  48; 6HR MAX TEMP:  70; 6HR PCP:  0.01;

MARION +       CLOUDY    70  63  78 S15G22    29.83S HAZE
MT COMFORT *+  CLOUDY    68  63  83 SW12G17   29.87R
SHELBYVILLE    CLOUDY    74  62  66 S12       29.83F
6HR MIN TEMP:  68; 6HR MAX TEMP:  74; 6HR PCP:  0.01;

ZIONSVILLE +   RAIN      65  63  91 S17G26    29.86R
6HR MIN TEMP:  55; 6HR MAX TEMP:  69; 6HR PCP:  0.04;


$$

INZ033-034-041-042-049-050-058-059-301900-
EAST CENTRAL INDIANA

CITY           SKY/WX    TMP DP  RH WIND       PRES   REMARKS
MUNCIE         CLOUDY    73  62  68 S13G21    29.84F
6HR MIN TEMP:  56; 6HR MAX TEMP:  73;

RICHMOND +     CLOUDY    70  64  83 S15       29.91F

$$

INZ060-061-067>069-081>083-085>088-301900-
SOUTHWEST INDIANA

CITY           SKY/WX    TMP DP  RH WIND       PRES   REMARKS
EVANSVILLE     LGT RAIN  66  64  93 W6G15     29.82F FOG
6HR MIN TEMP:  66; 6HR MAX TEMP:  68;

WASHINGTON +   HVY RAIN  65  63  94 W8        29.85F
6HR MIN TEMP:  64; 6HR MAX TEMP:  68; 6HR PCP:  0.43;


$$

INZ062-063-066-070>080-084-089>092-301900-
SOUTH CENTRAL AND SOUTHEAST INDIANA

CITY           SKY/WX    TMP DP  RH WIND       PRES   REMARKS
BLOOMINGTON    LGT RAIN  65  62  90 W3        29.85F FOG
6HR MIN TEMP:  65; 6HR MAX TEMP:  70; 6HR PCP:  0.25;

MADISON *+     CLOUDY    75  63  64 S15G26    29.90F
NORTH VERNON + CLOUDY    72  64  78 S10G17    29.87F
SEYMOUR +      CLOUDY    75  64  69 S12       29.85F

$$





USA.gov is the U.S. government's official web portal to all federal, state and local government web resources and services.